MET-3/5
1 21655U 91056A   05320.80197791  .00000051  00000-0  10000-3 0 09666
2 21655 082.5590 050.8458 0012693 207.9308 152.1101 13.17004171685409
MET-2/21
1 22782U 93055A   05320.56836692  .00000001  00000-0 -12529-4 0 03548
2 22782 082.5459 140.1286 0023633 058.0560 302.2900 13.83598967616647
OKEAN-4
1 23317U 94066A   05320.78451977  .00000307  00000-0  35332-4 0 07885
2 23317 082.5364 115.1077 0022418 358.7433 001.3699 14.82260648598515
NOAA-14
1 23455U 94089A   05321.38808036  .00000017  00000-0  33370-4 0  8689
2 23455 099.0709 012.0764 0008577 289.5668 070.4563 14.13612751561149
SICH-1
1 23657U 95046A   05320.70311419  .00000369  00000-0  44212-4 0 05949
2 23657 082.5281 256.0240 0024040 346.0581 013.9969 14.81265689550532
NOAA-15
1 25338U 98030A   05321.33008979  .00000054  00000-0  41504-4 0  2777
2 25338 098.5155 325.0245 0009733 273.3769 086.6343 14.24548404390554
RESURS
1 25394U 98043A   05320.95875898  .00000000  00000-0  18516-4 0 02310
2 25394 098.5230 025.6969 0002327 076.8627 283.2813 14.24086483382199
FENGYUN1
1 25730U 99025A   05320.65084905 -.00000249  00000-0 -11322-3 0 05758
2 25730 098.6144 316.3997 0015032 029.2363 330.9643 14.11801423336022
OKEAN-0
1 25860U 99039A   05320.91121302  .00000091  00000-0  21255-4 0  5928
2 25860 097.7473 340.0187 0001974 078.4801 281.6642 14.73312924340497
NOAA-16
1 26536U 00055A   05321.31981015 -.00000014  00000-0  16965-4 0  6221
2 26536 099.0371 280.8051 0010376 001.0111 359.1136 14.12289556265675
NOAA-17
1 27453U 02032A   05321.42773042  .00000160  00000-0  88902-4 0  6421
2 27453 098.6479 032.5153 0011254 334.4328 025.6287 14.23722266176644
NOAA-18
1 28654U 05018A   05321.38560506  .00000176  00000-0  12203-3 0  2407
2 28654 098.7632 264.4773 0015090 100.3766 259.9105 14.10902992 25514
HUBBLE
1 20580U 90037B   05320.44373380  .00000633  00000-0  36784-4 0  4726
2 20580 028.4690 356.5876 0003788 090.4162 269.6858 14.99893479653128
UARS
1 21701U 91063B   05320.87785888  .00000770  00000-0  31777-4 0 06089
2 21701 056.9777 284.6175 0115080 162.3415 198.1682 15.31500472776568
PO-34
1 25520U 98064B   05320.79964681  .00000825  00000-0  31408-4 0 03439
2 25520 028.4573 011.8123 0005736 086.7802 273.3440 15.16512538389777
ISS
1 25544U 98067A   05321.81707256  .00015912  00000-0  12176-3 0  7768
2 25544 051.6440 193.4984 0008119 294.6213 156.8826 15.72300844399861
OO-38
1 26063U 00004C   05320.74560303  .00000080  00000-0  47926-4 0  4859
2 26063 100.1915 208.5205 0036872 346.3700 013.6478 14.35741983304187
NO-45
1 26932U 01043D   05319.69318773 -.00000084  00000-0 -64119-6 0  1704
2 26932 067.0577 197.2543 0003935 277.1832 082.8824 14.29505417215454
